Time,TemperatureF,DewpointF,PressureIn,WindDirection,WindDirectionDegrees,WindSpeedMPH,WindSpeedGustMPH,Humidity,HourlyPrecipIn,Conditions,Clouds,dailyrainin,SolarRadiationWatts/m^2,SoftwareType,DateUTC
2013-03-16 00:02:00,59.0,48.0,-100.00,SSW,196,4.0,8.0,66,0.00,,,0.00,0.000000,,2013-03-16 05:02:00,
2013-03-16 00:12:00,59.0,48.0,-100.00,SSW,196,4.0,8.0,66,0.00,,,0.00,0.000000,,2013-03-16 05:12:00,
2013-03-16 00:22:00,59.0,48.0,-100.00,SSW,196,4.0,8.0,66,0.00,,,0.00,0.000000,,2013-03-16 05:22:00,
2013-03-16 00:53:00,58.0,49.0,-100.00,SSW,198,4.0,8.0,71,0.00,,,0.00,0.000000,,2013-03-16 05:53:00,
2013-03-16 01:02:00,58.0,49.0,-100.00,SSW,198,4.0,8.0,71,0.00,,,0.00,0.000000,,2013-03-16 06:02:00,
2013-03-16 01:12:00,58.0,49.0,-100.00,SSW,198,4.0,8.0,71,0.00,,,0.00,0.000000,,2013-03-16 06:12:00,
2013-03-16 01:22:00,58.0,49.0,-100.00,SSW,198,4.0,8.0,71,0.00,,,0.00,0.000000,,2013-03-16 06:22:00,
2013-03-16 01:52:00,59.0,48.0,-100.00,SSW,208,4.0,10.0,68,0.00,,,0.00,0.000000,,2013-03-16 06:52:00,
2013-03-16 02:02:00,59.0,48.0,-100.00,SSW,208,4.0,10.0,68,0.00,,,0.00,0.000000,,2013-03-16 07:02:00,
2013-03-16 02:12:00,59.0,48.0,-100.00,SSW,208,4.0,10.0,68,0.00,,,0.00,0.000000,,2013-03-16 07:12:00,
2013-03-16 02:22:00,59.0,48.0,-100.00,SSW,208,4.0,10.0,68,0.00,,,0.00,0.000000,,2013-03-16 07:22:00,
2013-03-16 02:52:00,58.0,49.0,-100.00,SSW,204,3.0,10.0,71,0.00,,,0.00,0.000000,,2013-03-16 07:52:00,
2013-03-16 03:02:00,58.0,49.0,-100.00,SSW,204,3.0,10.0,71,0.00,,,0.00,0.000000,,2013-03-16 08:02:00,
2013-03-16 03:12:00,58.0,49.0,-100.00,SSW,204,3.0,10.0,71,0.00,,,0.00,0.000000,,2013-03-16 08:12:00,
2013-03-16 03:23:00,58.0,49.0,-100.00,SSW,204,3.0,10.0,71,0.00,,,0.00,0.000000,,2013-03-16 08:23:00,
2013-03-16 03:52:00,55.0,50.0,-100.00,SSW,194,1.0,5.0,82,0.00,,,0.00,0.000000,,2013-03-16 08:52:00,
2013-03-16 04:02:00,55.0,50.0,-100.00,SSW,194,1.0,5.0,82,0.00,,,0.00,0.000000,,2013-03-16 09:02:00,
2013-03-16 04:12:00,55.0,50.0,-100.00,SSW,194,1.0,5.0,82,0.00,,,0.00,0.000000,,2013-03-16 09:12:00,
2013-03-16 04:22:00,55.0,50.0,-100.00,SSW,194,1.0,5.0,82,0.00,,,0.00,0.000000,,2013-03-16 09:22:00,
2013-03-16 04:53:00,50.0,48.0,-100.00,East,97,0.0,2.0,93,0.00,,,0.00,0.000000,,2013-03-16 09:53:00,
2013-03-16 05:03:00,50.0,48.0,-100.00,East,97,0.0,2.0,93,0.00,,,0.00,0.000000,,2013-03-16 10:03:00,
2013-03-16 05:12:00,50.0,48.0,-100.00,East,97,0.0,2.0,93,0.00,,,0.00,0.000000,,2013-03-16 10:12:00,
2013-03-16 05:23:00,50.0,48.0,-100.00,East,97,0.0,2.0,93,0.00,,,0.00,0.000000,,2013-03-16 10:23:00,
2013-03-16 05:53:00,47.0,46.0,-100.00,NNE,32,0.0,2.0,95,0.00,,,0.00,0.000000,,2013-03-16 10:53:00,
2013-03-16 06:03:00,47.0,46.0,-100.00,NNE,32,0.0,2.0,95,0.00,,,0.00,0.000000,,2013-03-16 11:03:00,
2013-03-16 06:12:00,47.0,46.0,-100.00,NNE,32,0.0,2.0,95,0.00,,,0.00,0.000000,,2013-03-16 11:12:00,
2013-03-16 06:22:00,47.0,46.0,-100.00,NNE,32,0.0,2.0,95,0.00,,,0.00,0.000000,,2013-03-16 11:22:00,
2013-03-16 06:53:00,44.0,43.0,-100.00,NNW,331,0.0,2.0,95,0.00,,,0.00,0.000000,,2013-03-16 11:53:00,
2013-03-16 07:02:00,44.0,43.0,-100.00,NNW,331,0.0,2.0,95,0.00,,,0.00,0.000000,,2013-03-16 12:02:00,
2013-03-16 07:12:00,44.0,43.0,-100.00,NNW,331,0.0,2.0,95,0.00,,,0.00,0.000000,,2013-03-16 12:12:00,
2013-03-16 07:22:00,44.0,43.0,-100.00,NNW,331,0.0,2.0,95,0.00,,,0.00,0.000000,,2013-03-16 12:22:00,
2013-03-16 07:53:00,43.0,42.0,-100.00,SE,140,0.0,0.0,96,0.00,,,0.00,6.000000,,2013-03-16 12:53:00,
2013-03-16 08:02:00,43.0,42.0,-100.00,SE,140,0.0,0.0,96,0.00,,,0.00,6.000000,,2013-03-16 13:02:00,
2013-03-16 08:12:00,43.0,42.0,-100.00,SE,140,0.0,0.0,96,0.00,,,0.00,6.000000,,2013-03-16 13:12:00,
2013-03-16 08:22:00,43.0,42.0,-100.00,SE,140,0.0,0.0,96,0.00,,,0.00,6.000000,,2013-03-16 13:22:00,
2013-03-16 08:53:00,56.0,55.0,-100.00,SSE,161,0.0,2.0,95,0.00,,,0.00,179.000000,,2013-03-16 13:53:00,
2013-03-16 09:02:00,56.0,55.0,-100.00,SSE,161,0.0,2.0,95,0.00,,,0.00,179.000000,,2013-03-16 14:02:00,
2013-03-16 09:12:00,56.0,55.0,-100.00,SSE,161,0.0,2.0,95,0.00,,,0.00,179.000000,,2013-03-16 14:12:00,
2013-03-16 09:22:00,56.0,55.0,-100.00,SSE,161,0.0,2.0,95,0.00,,,0.00,179.000000,,2013-03-16 14:22:00,
2013-03-16 09:52:00,69.0,55.0,-100.00,SW,229,5.0,12.0,62,0.00,,,0.00,429.000000,,2013-03-16 14:52:00,
2013-03-16 10:02:00,69.0,55.0,-100.00,SW,229,5.0,12.0,62,0.00,,,0.00,429.000000,,2013-03-16 15:02:00,
2013-03-16 10:12:00,69.0,55.0,-100.00,SW,229,5.0,12.0,62,0.00,,,0.00,429.000000,,2013-03-16 15:12:00,
2013-03-16 10:22:00,69.0,55.0,-100.00,SW,229,5.0,12.0,62,0.00,,,0.00,429.000000,,2013-03-16 15:22:00,
2013-03-16 10:53:00,71.0,54.0,-100.00,SW,235,8.0,19.0,54,0.00,,,0.00,671.000000,,2013-03-16 15:53:00,
2013-03-16 11:03:00,71.0,54.0,-100.00,SW,235,8.0,19.0,54,0.00,,,0.00,671.000000,,2013-03-16 16:03:00,
2013-03-16 11:12:00,71.0,54.0,-100.00,SW,235,8.0,19.0,54,0.00,,,0.00,671.000000,,2013-03-16 16:12:00,
2013-03-16 11:22:00,71.0,54.0,-100.00,SW,235,8.0,19.0,54,0.00,,,0.00,671.000000,,2013-03-16 16:22:00,
2013-03-16 11:53:00,73.0,53.0,-100.00,WSW,238,8.0,21.0,50,0.00,,,0.00,863.000000,,2013-03-16 16:53:00,
2013-03-16 12:03:00,73.0,53.0,-100.00,WSW,238,8.0,21.0,50,0.00,,,0.00,863.000000,,2013-03-16 17:03:00,
2013-03-16 12:12:00,73.0,53.0,-100.00,WSW,238,8.0,21.0,50,0.00,,,0.00,863.000000,,2013-03-16 17:12:00,
2013-03-16 12:23:00,73.0,53.0,-100.00,WSW,238,8.0,21.0,50,0.00,,,0.00,863.000000,,2013-03-16 17:23:00,
2013-03-16 12:53:00,75.0,54.0,-100.00,WSW,241,8.0,18.0,48,0.00,,,0.00,988.000000,,2013-03-16 17:53:00,
2013-03-16 13:02:00,75.0,54.0,-100.00,WSW,241,8.0,18.0,48,0.00,,,0.00,988.000000,,2013-03-16 18:02:00,
2013-03-16 13:13:00,75.0,54.0,-100.00,WSW,241,8.0,18.0,48,0.00,,,0.00,988.000000,,2013-03-16 18:13:00,
2013-03-16 13:22:00,75.0,54.0,-100.00,WSW,241,8.0,18.0,48,0.00,,,0.00,988.000000,,2013-03-16 18:22:00,
2013-03-16 13:53:00,75.0,53.0,-100.00,SW,219,7.0,16.0,47,0.00,,,-99.99,967.000000,,2013-03-16 18:53:00,
2013-03-16 14:02:00,75.0,53.0,-100.00,SW,219,7.0,16.0,47,0.00,,,-99.99,967.000000,,2013-03-16 19:02:00,
2013-03-16 14:12:00,75.0,53.0,-100.00,SW,219,7.0,16.0,47,0.00,,,-99.99,967.000000,,2013-03-16 19:12:00,
2013-03-16 14:22:00,75.0,53.0,-100.00,SW,219,7.0,16.0,47,0.00,,,-99.99,967.000000,,2013-03-16 19:22:00,
2013-03-16 14:53:00,75.0,52.0,-100.00,SW,220,8.0,16.0,45,0.00,,,0.00,957.000000,,2013-03-16 19:53:00,
2013-03-16 15:02:00,75.0,52.0,-100.00,SW,220,8.0,16.0,45,0.00,,,0.00,957.000000,,2013-03-16 20:02:00,
2013-03-16 15:12:00,75.0,52.0,-100.00,SW,220,8.0,16.0,45,0.00,,,0.00,957.000000,,2013-03-16 20:12:00,
2013-03-16 15:22:00,75.0,52.0,-100.00,SW,220,8.0,16.0,45,0.00,,,0.00,957.000000,,2013-03-16 20:22:00,
2013-03-16 15:52:00,75.0,54.0,-100.00,SW,226,7.0,18.0,48,0.00,,,0.00,893.000000,,2013-03-16 20:52:00,
2013-03-16 16:02:00,75.0,54.0,-100.00,SW,226,7.0,18.0,48,0.00,,,0.00,893.000000,,2013-03-16 21:02:00,
2013-03-16 16:12:00,75.0,54.0,-100.00,SW,226,7.0,18.0,48,0.00,,,0.00,893.000000,,2013-03-16 21:12:00,
2013-03-16 16:22:00,75.0,54.0,-100.00,SW,226,7.0,18.0,48,0.00,,,0.00,893.000000,,2013-03-16 21:22:00,
2013-03-16 16:53:00,74.0,53.0,-100.00,SW,219,8.0,18.0,48,0.00,,,0.00,709.000000,,2013-03-16 21:53:00,
2013-03-16 17:03:00,74.0,53.0,-100.00,SW,219,8.0,18.0,48,0.00,,,0.00,709.000000,,2013-03-16 22:03:00,
2013-03-16 17:12:00,74.0,53.0,-100.00,SW,219,8.0,18.0,48,0.00,,,0.00,709.000000,,2013-03-16 22:12:00,
2013-03-16 17:22:00,74.0,53.0,-100.00,SW,219,8.0,18.0,48,0.00,,,0.00,709.000000,,2013-03-16 22:22:00,
2013-03-16 17:53:00,72.0,57.0,-100.00,South,179,6.0,13.0,59,0.00,,,0.00,472.000000,,2013-03-16 22:53:00,
2013-03-16 18:02:00,72.0,57.0,-100.00,South,179,6.0,13.0,59,0.00,,,0.00,472.000000,,2013-03-16 23:02:00,
2013-03-16 18:13:00,72.0,57.0,-100.00,South,179,6.0,13.0,59,0.00,,,0.00,472.000000,,2013-03-16 23:13:00,
2013-03-16 18:22:00,72.0,57.0,-100.00,South,179,6.0,13.0,59,0.00,,,0.00,472.000000,,2013-03-16 23:22:00,
2013-03-16 18:53:00,69.0,58.0,-100.00,South,171,5.0,11.0,68,0.00,,,0.00,219.000000,,2013-03-16 23:53:00,
2013-03-16 19:02:00,69.0,58.0,-100.00,South,171,5.0,11.0,68,0.00,,,0.00,219.000000,,2013-03-17 00:02:00,
2013-03-16 19:12:00,69.0,58.0,-100.00,South,171,5.0,11.0,68,0.00,,,0.00,219.000000,,2013-03-17 00:12:00,
2013-03-16 19:22:00,69.0,58.0,-100.00,South,171,5.0,11.0,68,0.00,,,0.00,219.000000,,2013-03-17 00:22:00,
2013-03-16 19:52:00,63.0,58.0,-100.00,SSE,159,2.0,6.0,83,0.00,,,0.00,23.000000,,2013-03-17 00:52:00,
2013-03-16 20:02:00,63.0,58.0,-100.00,SSE,159,2.0,6.0,83,0.00,,,0.00,23.000000,,2013-03-17 01:02:00,
2013-03-16 20:12:00,63.0,58.0,-100.00,SSE,159,2.0,6.0,83,0.00,,,0.00,23.000000,,2013-03-17 01:12:00,
2013-03-16 20:22:00,63.0,58.0,-100.00,SSE,159,2.0,6.0,83,0.00,,,0.00,23.000000,,2013-03-17 01:22:00,
2013-03-16 20:53:00,60.0,58.0,-100.00,South,170,2.0,4.0,92,0.00,,,0.00,0.000000,,2013-03-17 01:53:00,
2013-03-16 21:03:00,60.0,58.0,-100.00,South,170,2.0,4.0,92,0.00,,,0.00,0.000000,,2013-03-17 02:03:00,
2013-03-16 21:13:00,60.0,58.0,-100.00,South,170,2.0,4.0,92,0.00,,,0.00,0.000000,,2013-03-17 02:13:00,
2013-03-16 21:22:00,60.0,58.0,-100.00,South,170,2.0,4.0,92,0.00,,,0.00,0.000000,,2013-03-17 02:22:00,
2013-03-16 21:53:00,59.0,57.0,-100.00,SSE,161,1.0,5.0,92,0.00,,,0.00,0.000000,,2013-03-17 02:53:00,
2013-03-16 22:02:00,59.0,57.0,-100.00,SSE,161,1.0,5.0,92,0.00,,,0.00,0.000000,,2013-03-17 03:02:00,
2013-03-16 22:12:00,59.0,57.0,-100.00,SSE,161,1.0,5.0,92,0.00,,,0.00,0.000000,,2013-03-17 03:12:00,
2013-03-16 22:22:00,59.0,57.0,-100.00,SSE,161,1.0,5.0,92,0.00,,,0.00,0.000000,,2013-03-17 03:22:00,
2013-03-16 22:53:00,55.0,54.0,-100.00,SSW,193,0.0,3.0,95,0.00,,,0.00,0.000000,,2013-03-17 03:53:00,
2013-03-16 23:03:00,55.0,54.0,-100.00,SSW,193,0.0,3.0,95,0.00,,,0.00,0.000000,,2013-03-17 04:03:00,
2013-03-16 23:12:00,55.0,54.0,-100.00,SSW,193,0.0,3.0,95,0.00,,,0.00,0.000000,,2013-03-17 04:12:00,
2013-03-16 23:23:00,55.0,54.0,-100.00,SSW,193,0.0,3.0,95,0.00,,,0.00,0.000000,,2013-03-17 04:23:00,
2013-03-16 23:53:00,55.0,54.0,-100.00,SSE,167,0.0,3.0,96,0.00,,,0.00,0.000000,,2013-03-17 04:53:00,